Weather History for Hutchinson, MN

Change the Weather History Date:

Thursday, November 10, 2011

  Actual Average Record
Temperature  
Mean Temperature 32 °F -  
Max Temperature 41 °F 41 °F 71 °F (2012)
Min Temperature 23 °F 25 °F 5 °F (1966)
Degree Days  
Heating Degree Days 33    
Moisture  
Dew Point 25 °F    
Average Humidity 67    
Maximum Humidity 79    
Minimum Humidity 50    
Precipitation  
Precipitation 0.00 in - - ()
Sea Level Pressure  
Sea Level Pressure 30.04 in    
Wind  
Wind Speed 13 mph (WNW)    
Max Wind Speed 20 mph    
Max Gust Speed 28 mph    
Visibility 10 miles    
Events      
Averages and records for this station are not official NWS values.
T = Trace of Precipitation, MM = Missing Value Source: NWS Daily Summary

Daily Weather History Graph

Daily Weather History Graph

Search for Another Location

Airport:

Trip Planner

Search our weather history database for the weather conditions in past years. The results will help you decide how hot, cold, wet, or windy it might be!

Date:

Astronomy

Nov. 10, 2011 Rise Set
Actual Time 7:07 AM CST 4:54 PM CST
Civil Twilight 6:36 AM CST 5:25 PM CST
Nautical Twilight 6:01 AM CST 6:00 PM CST
Astronomical Twilight 5:26 AM CST 6:35 PM CST
Moon 4:40 PM CST (11/10) 7:02 AM CST (11/10)
Length of Visible Light 10h 49m
Length of Day
9h 46m
Full, 100% of the Moon is Illuminated
Nov 10
Full
Nov 10
Full
Nov 18
Last Quarter
Nov 25
New
Dec 2
First Quarter

Hourly Weather History & Observations

Time (CST) Temp. Windchill Dew Point Humidity Pressure Visibility Wind Dir Wind Speed Gust Speed Precip Events Conditions
12:13 AM 36.9 °F 27.5 °F 28.9 °F 73% 30.01 in 10.0 mi WNW 16.1 mph 24.2 mph N/A   Overcast
12:32 AM 36.9 °F 28.2 °F 29.1 °F 74% 30.01 in 10.0 mi WNW 13.8 mph 18.4 mph N/A   Overcast
12:52 AM 36.9 °F 27.5 °F 29.1 °F 74% 30.01 in 10.0 mi WNW 16.1 mph 21.9 mph N/A   Overcast
1:13 AM 36.9 °F 28.2 °F 28.9 °F 73% 30.01 in 10.0 mi WNW 13.8 mph 21.9 mph N/A   Overcast
1:33 AM 36.9 °F 27.5 °F 28.4 °F 71% 30.01 in 10.0 mi WNW 16.1 mph 21.9 mph N/A   Overcast
1:52 AM 36.9 °F 27.8 °F 28.4 °F 71% 30.01 in 10.0 mi WNW 15.0 mph 23.0 mph N/A   Overcast
2:13 AM 36.9 °F 28.2 °F 28.4 °F 71% 30.01 in 10.0 mi WNW 13.8 mph 25.3 mph N/A   Overcast
2:32 AM 36.9 °F 27.5 °F 28.9 °F 73% 30.02 in 10.0 mi WNW 16.1 mph 21.9 mph N/A   Overcast
3:13 AM 36.9 °F 27.8 °F 28.9 °F 73% 30.02 in 10.0 mi WNW 15.0 mph 23.0 mph N/A   Overcast
3:33 AM 36.5 °F 27.0 °F 28.2 °F 72% 30.01 in 10.0 mi WNW 16.1 mph 23.0 mph N/A   Overcast
3:52 AM 35.6 °F 26.2 °F 27.5 °F 72% 30.01 in 10.0 mi WNW 15.0 mph 20.7 mph N/A   Overcast
4:13 AM 35.6 °F 26.2 °F 27.3 °F 72% 30.02 in 10.0 mi WNW 15.0 mph 19.6 mph N/A   Overcast
4:33 AM 34.3 °F 23.9 °F 26.4 °F 73% 30.02 in 10.0 mi WNW 17.3 mph 24.2 mph N/A   Overcast
4:53 AM 34.3 °F 24.2 °F 26.6 °F 73% 30.02 in 10.0 mi WNW 16.1 mph 21.9 mph N/A   Overcast
5:12 AM 34.7 °F 24.7 °F 26.6 °F 72% 30.02 in 10.0 mi West 16.1 mph 27.6 mph N/A   Overcast
5:32 AM 34.3 °F 24.2 °F 26.6 °F 73% 30.03 in 10.0 mi WNW 16.1 mph 23.0 mph N/A   Overcast
5:53 AM 34.5 °F 24.5 °F 26.6 °F 73% 30.03 in 10.0 mi WNW 16.1 mph 21.9 mph N/A   Overcast
6:12 AM 34.3 °F 25.0 °F 26.6 °F 73% 30.04 in 10.0 mi WNW 13.8 mph - N/A   Overcast
6:33 AM 34.3 °F 25.0 °F 26.8 °F 74% 30.04 in 10.0 mi WNW 13.8 mph 19.6 mph N/A   Overcast
6:53 AM 34.3 °F 25.9 °F 26.6 °F 73% 30.05 in 10.0 mi WNW 11.5 mph 23.0 mph N/A   Overcast
7:13 AM 33.6 °F 24.1 °F 27.0 °F 77% 30.05 in 10.0 mi West 13.8 mph 18.4 mph N/A   Scattered Clouds
7:32 AM 32.0 °F 23.6 °F 25.9 °F 78% 30.06 in 10.0 mi WNW 10.4 mph 16.1 mph N/A   Scattered Clouds
7:53 AM 33.4 °F 25.4 °F 27.1 °F 78% 30.08 in 10.0 mi WNW 10.4 mph 17.3 mph N/A   Mostly Cloudy
8:32 AM 34.3 °F 24.2 °F 26.4 °F 73% 30.07 in 10.0 mi WNW 16.1 mph 24.2 mph N/A   Scattered Clouds
8:53 AM 34.3 °F 25.5 °F 25.9 °F 71% 30.08 in 10.0 mi WNW 12.7 mph - N/A   Mostly Cloudy
9:33 AM 36.9 °F 27.1 °F 27.1 °F 68% 30.08 in 10.0 mi WNW 17.3 mph 23.0 mph N/A   Mostly Cloudy
9:53 AM 36.9 °F 28.7 °F 27.1 °F 68% 30.08 in 10.0 mi WNW 12.7 mph 20.7 mph N/A   Mostly Cloudy
10:12 AM 37.4 °F 28.9 °F 26.4 °F 65% 30.08 in 10.0 mi WNW 13.8 mph 20.7 mph N/A   Mostly Cloudy
10:33 AM 39.4 °F 30.4 °F 27.0 °F 61% 30.08 in 10.0 mi WNW 17.3 mph - N/A   Overcast
10:53 AM 37.6 °F 29.1 °F 25.5 °F 62% 30.08 in 10.0 mi WNW 13.8 mph 21.9 mph N/A   Mostly Cloudy
11:13 AM 39.4 °F 31.1 °F 26.4 °F 60% 30.08 in 10.0 mi WNW 15.0 mph - N/A   Overcast
11:32 AM 40.6 °F 32.0 °F 26.6 °F 57% 30.08 in 10.0 mi NW 17.3 mph 24.2 mph N/A   Overcast
11:53 AM 39.4 °F 29.8 °F 25.3 °F 57% 30.08 in 10.0 mi NW 19.6 mph - N/A   Overcast
12:13 PM 39.4 °F 30.4 °F 25.0 °F 56% 30.07 in 10.0 mi NW 17.3 mph 23.0 mph N/A   Overcast
12:32 PM 39.4 °F 31.1 °F 25.7 °F 58% 30.08 in 10.0 mi WNW 15.0 mph 21.9 mph N/A   Overcast
12:53 PM 40.3 °F 33.4 °F 24.8 °F 54% 30.06 in 10.0 mi NW 11.5 mph - N/A   Overcast
1:12 PM 40.6 °F 32.7 °F 24.8 °F 53% 30.06 in 10.0 mi NW 15.0 mph 19.6 mph N/A   Overcast
1:32 PM 41.4 °F 32.7 °F 24.3 °F 51% 30.06 in 10.0 mi NW 18.4 mph 23.0 mph N/A   Overcast
1:53 PM 39.4 °F 31.4 °F 23.5 °F 53% 30.06 in 10.0 mi NW 13.8 mph 19.6 mph N/A   Mostly Cloudy
2:13 PM 39.7 °F 31.9 °F 23.7 °F 53% 30.06 in 10.0 mi NW 13.8 mph 18.4 mph N/A   Mostly Cloudy
2:33 PM 40.6 °F 32.3 °F 23.9 °F 51% 30.06 in 10.0 mi NW 16.1 mph - N/A   Mostly Cloudy
3:13 PM 40.5 °F 32.1 °F 23.2 °F 50% 30.05 in 10.0 mi West 16.1 mph 20.7 mph N/A   Mostly Cloudy
3:32 PM 39.4 °F 32.7 °F 23.0 °F 52% 30.05 in 10.0 mi WNW 10.4 mph 19.6 mph N/A   Mostly Cloudy
3:52 PM 39.4 °F 31.8 °F 22.8 °F 52% 30.05 in 10.0 mi West 12.7 mph - N/A   Scattered Clouds
4:13 PM 39.4 °F 31.8 °F 23.0 °F 52% 30.05 in 10.0 mi WNW 12.7 mph - N/A   Clear
4:32 PM 38.1 °F 31.2 °F 22.8 °F 54% 30.05 in 10.0 mi WNW 10.4 mph - N/A   Clear
4:52 PM 36.9 °F 31.4 °F 23.0 °F 57% 30.04 in 10.0 mi WNW 6.9 mph - N/A   Clear
5:13 PM 34.3 °F 29.2 °F 21.6 °F 60% 30.04 in 10.0 mi WNW 5.8 mph - N/A   Clear
5:33 PM 34.3 °F 30.2 °F 22.8 °F 63% 30.04 in 10.0 mi WNW 4.6 mph - N/A   Clear
5:53 PM 32.0 °F - 21.4 °F 65% 30.03 in 10.0 mi Calm Calm - N/A   Clear
6:12 PM 29.7 °F - 20.3 °F 68% 30.03 in 10.0 mi Calm Calm - N/A   Clear
6:33 PM 27.9 °F - 18.9 °F 69% 30.02 in 10.0 mi Calm Calm - N/A   Clear
6:53 PM 29.7 °F - 21.7 °F 72% 30.02 in 10.0 mi Calm Calm - N/A   Clear
7:13 PM 24.4 °F - 16.7 °F 72% 30.02 in 10.0 mi Calm Calm - N/A   Clear
7:32 PM 24.6 °F - 18.3 °F 77% 30.01 in 10.0 mi Calm Calm - N/A   Clear
7:53 PM 23.2 °F - 17.2 °F 78% 30.01 in 10.0 mi Calm Calm - N/A   Clear
8:13 PM 24.6 °F - 18.9 °F 79% 30.00 in 10.0 mi Calm Calm - N/A   Clear
8:32 PM 27.1 °F - 20.5 °F 76% 29.98 in 10.0 mi Calm Calm - N/A   Clear
8:53 PM 29.7 °F - 21.7 °F 72% 29.98 in 10.0 mi Calm Calm - N/A   Clear
9:13 PM 29.7 °F - 22.5 °F 75% 29.98 in 10.0 mi Calm Calm - N/A   Clear
9:33 PM 29.7 °F - 21.2 °F 71% 29.98 in 10.0 mi Calm Calm - N/A   Clear
9:53 PM 29.7 °F - 22.3 °F 74% 29.98 in 10.0 mi Calm Calm - N/A   Scattered Clouds
10:13 PM 29.7 °F - 21.6 °F 72% 29.97 in 10.0 mi Calm Calm - N/A   Scattered Clouds
10:33 PM 29.7 °F - 21.9 °F 73% 29.96 in 10.0 mi Calm Calm - N/A   Scattered Clouds
10:52 PM 29.7 °F - 21.9 °F 73% 29.96 in 10.0 mi Calm Calm - N/A   Mostly Cloudy
11:13 PM 29.7 °F - 22.1 °F 73% 29.94 in 10.0 mi Calm Calm - N/A   Overcast
11:33 PM 29.7 °F - 21.7 °F 72% 29.94 in 10.0 mi Calm Calm - N/A   Overcast
11:53 PM 29.7 °F - 21.6 °F 72% 29.93 in 10.0 mi Calm Calm - N/A   Mostly Cloudy